| time (UTC) | temp C | wind direction | speed KPH | gust KPH | rain 1hr cm | rain 24hr cm | rain mn cm | humidity % | barometer mb |
| 20260504050642 | 15 | 253 | 4.8 | 6.4 | 0.00 | 0.00 | 0.00 | 47 | 1013.2 |
| 20260504045642 | 14 | 171 | 0.0 | 0.0 | 0.00 | 0.00 | 0.00 | 50 | 1013.2 |
| 20260504044642 | 13 | 192 | 0.0 | 0.0 | 0.00 | 0.00 | 0.00 | 50 | 1013.1 |
| 20260504043630 | 12 | 216 | 3.2 | 3.2 | 0.00 | 0.00 | 0.00 | 52 | 1013.1 |
| 20260504042629 | 12 | 182 | 0.0 | 0.0 | 0.00 | 0.00 | 0.00 | 55 | 1013.0 |
| 20260504041617 | 11 | 204 | 3.2 | 3.2 | 0.00 | 0.00 | 0.00 | 55 | 1012.9 |
| 20260504040605 | 11 | 170 | 3.2 | 3.2 | 0.00 | 0.00 | 0.00 | 56 | 1012.9 |
| 20260504035552 | 10 | 180 | 3.2 | 3.2 | 0.00 | 0.00 | 0.00 | 57 | 1012.8 |
| 20260504034551 | 10 | 174 | 1.6 | 1.6 | 0.00 | 0.00 | 0.00 | 61 | 1012.8 |
| 20260504033539 | 10 | 190 | 0.0 | 0.0 | 0.00 | 0.00 | 0.00 | 62 | 1012.8 |
| 20260504032539 | 9 | 210 | 0.0 | 0.0 | 0.00 | 0.00 | 0.00 | 63 | 1012.9 |
| 20260504031528 | 9 | 179 | 0.0 | 0.0 | 0.00 | 0.00 | 0.00 | 63 | 1012.8 |
| 20260504030526 | 10 | 196 | 1.6 | 1.6 | 0.00 | 0.00 | 0.00 | 62 | 1012.9 |
| 20260504025527 | 10 | 192 | 0.0 | 0.0 | 0.00 | 0.00 | 0.00 | 62 | 1012.9 |
| 20260504024526 | 10 | 164 | 3.2 | 3.2 | 0.00 | 0.00 | 0.00 | 63 | 1012.8 |
| 20260504023526 | 10 | 196 | 1.6 | 1.6 | 0.00 | 0.00 | 0.00 | 62 | 1012.8 |
| 20260504022514 | 10 | 160 | 1.6 | 1.6 | 0.00 | 0.00 | 0.00 | 62 | 1012.8 |
| 20260504021514 | 10 | 186 | 1.6 | 1.6 | 0.00 | 0.00 | 0.00 | 61 | 1012.9 |
| 20260504020514 | 10 | 162 | 4.8 | 6.4 | 0.00 | 0.00 | 0.00 | 61 | 1012.9 |
| 20260504015502 | 10 | 192 | 1.6 | 1.6 | 0.00 | 0.00 | 0.00 | 61 | 1012.9 |
| 20260504014449 | 10 | 192 | 3.2 | 3.2 | 0.00 | 0.00 | 0.00 | 62 | 1012.9 |
| 20260504013437 | 10 | 222 | 0.0 | 0.0 | 0.00 | 0.00 | 0.00 | 60 | 1012.9 |
| 20260504012436 | 10 | 181 | 0.0 | 0.0 | 0.00 | 0.00 | 0.00 | 60 | 1013.0 |
| 20260504011424 | 11 | 173 | 1.6 | 1.6 | 0.00 | 0.00 | 0.00 | 59 | 1013.0 |
| 20260504010424 | 10 | 204 | 3.2 | 3.2 | 0.00 | 0.00 | 0.00 | 60 | 1013.1 |
| 20260504005424 | 11 | 185 | 0.0 | 0.0 | 0.00 | 0.00 | 0.00 | 59 | 1013.1 |
| 20260504004424 | 11 | 173 | 0.0 | 0.0 | 0.00 | 0.00 | 0.00 | 57 | 1013.1 |
| 20260504003413 | 11 | 180 | 3.2 | 3.2 | 0.00 | 0.00 | 0.00 | 55 | 1013.2 |
| 20260504002411 | 12 | 156 | 1.6 | 1.6 | 0.00 | 0.00 | 0.00 | 56 | 1013.2 |
| 20260504001411 | 12 | 210 | 0.0 | 0.0 | 0.00 | 0.00 | 0.00 | 56 | 1013.2 |
| 20260504000401 | 11 | 174 | 4.8 | 4.8 | 0.00 | 0.00 | 0.00 | 57 | 1013.2 |
| 20260503235359 | 11 | 210 | 1.6 | 1.6 | 0.00 | 0.00 | 0.00 | 58 | 1013.3 |
| 20260503234359 | 11 | 182 | 0.0 | 0.0 | 0.00 | 0.00 | 0.00 | 60 | 1013.3 |
| 20260503233358 | 11 | 186 | 0.0 | 0.0 | 0.00 | 0.00 | 0.00 | 60 | 1013.4 |
| 20260503232347 | 11 | 198 | 0.0 | 0.0 | 0.00 | 0.00 | 0.00 | 58 | 1013.4 |
| 20260503231347 | 11 | 180 | 0.0 | 0.0 | 0.00 | 0.00 | 0.00 | 59 | 1013.4 |
| 20260503230346 | 11 | 216 | 0.0 | 0.0 | 0.00 | 0.00 | 0.00 | 60 | 1013.5 |
| 20260503225334 | 11 | 182 | 0.0 | 0.0 | 0.00 | 0.00 | 0.00 | 61 | 1013.4 |
| 20260503224334 | 12 | 228 | 0.0 | 0.0 | 0.00 | 0.00 | 0.00 | 61 | 1013.5 |
| 20260503223322 | 11 | 186 | 0.0 | 0.0 | 0.00 | 0.00 | 0.00 | 61 | 1013.5 |
| 20260503222321 | 11 | 198 | 0.0 | 0.0 | 0.00 | 0.00 | 0.00 | 62 | 1013.5 |
| 20260503221321 | 12 | 186 | 0.0 | 0.0 | 0.00 | 0.00 | 0.00 | 61 | 1013.5 |
| 20260503220310 | 12 | 198 | 0.0 | 0.0 | 0.00 | 0.00 | 0.00 | 59 | 1013.6 |
| 20260503215257 | 13 | 120 | 0.0 | 0.0 | 0.00 | 0.00 | 0.00 | 57 | 1013.6 |
| 20260503214244 | 12 | 258 | 0.0 | 0.0 | 0.00 | 0.00 | 0.00 | 58 | 1013.5 |
| 20260503213232 | 12 | 186 | 0.0 | 0.0 | 0.00 | 0.00 | 0.00 | 60 | 1013.5 |
| 20260503212231 | 11 | 192 | 0.0 | 0.0 | 0.00 | 0.00 | 0.00 | 62 | 1013.5 |
| 20260503211231 | 12 | 204 | 0.0 | 0.0 | 0.00 | 0.00 | 0.00 | 61 | 1013.5 |
| 20260503210219 | 11 | 192 | 0.0 | 0.0 | 0.00 | 0.00 | 0.00 | 65 | 1013.6 |
| 20260503205219 | 10 | 186 | 0.0 | 0.0 | 0.00 | 0.00 | 0.00 | 68 | 1013.5 |
| 20260503204219 | 10 | 198 | 0.0 | 0.0 | 0.00 | 0.00 | 0.00 | 69 | 1013.5 |
| 20260503203206 | 10 | 198 | 0.0 | 0.0 | 0.00 | 0.00 | 0.00 | 70 | 1013.5 |
| 20260503202154 | 11 | 198 | 0.0 | 0.0 | 0.00 | 0.00 | 0.00 | 68 | 1013.5 |
| 20260503201154 | 11 | 193 | 0.0 | 0.0 | 0.00 | 0.00 | 0.00 | 68 | 1013.4 |
| 20260503200141 | 12 | 193 | 0.0 | 0.0 | 0.00 | 0.00 | 0.00 | 66 | 1013.5 |
| 20260503195141 | 12 | 193 | 0.0 | 0.0 | 0.00 | 0.00 | 0.00 | 66 | 1013.5 |
| 20260503194129 | 12 | 204 | 0.0 | 0.0 | 0.00 | 0.00 | 0.00 | 68 | 1013.6 |
| 20260503193128 | 12 | 204 | 0.0 | 0.0 | 0.00 | 0.00 | 0.00 | 64 | 1013.5 |
| 20260503192116 | 13 | 204 | 0.0 | 0.0 | 0.00 | 0.00 | 0.00 | 59 | 1013.5 |
| 20260503191104 | 13 | 204 | 0.0 | 0.0 | 0.00 | 0.00 | 0.00 | 62 | 1013.4 |
| 20260503190051 | 14 | 204 | 0.0 | 0.0 | 0.00 | 0.00 | 0.00 | 58 | 1013.4 |
| 20260503185038 | 15 | 204 | 0.0 | 0.0 | 0.00 | 0.00 | 0.00 | 54 | 1013.3 |
| 20260503184026 | 15 | 204 | 0.0 | 0.0 | 0.00 | 0.00 | 0.00 | 50 | 1013.3 |
| 20260503183014 | 16 | 204 | 0.0 | 0.0 | 0.00 | 0.00 | 0.00 | 48 | 1013.2 |
| 20260503182003 | 17 | 204 | 0.0 | 0.0 | 0.00 | 0.00 | 0.00 | 48 | 1013.2 |
| 20260503181001 | 18 | 203 | 0.0 | 0.0 | 0.00 | 0.00 | 0.00 | 43 | 1013.2 |
| 20260503175949 | 19 | 198 | 0.0 | 0.0 | 0.00 | 0.00 | 0.00 | 41 | 1013.1 |
| 20260503174948 | 20 | 172 | 0.0 | 0.0 | 0.00 | 0.00 | 0.00 | 38 | 1013.1 |
| 20260503173948 | 21 | 151 | 0.0 | 0.0 | 0.00 | 0.00 | 0.00 | 36 | 1013.0 |
| 20260503172936 | 21 | 198 | 0.0 | 0.0 | 0.00 | 0.00 | 0.00 | 35 | 1013.0 |
| 20260503171937 | 22 | 222 | 0.0 | 0.0 | 0.00 | 0.00 | 0.00 | 34 | 1012.9 |
| 20260503170936 | 23 | 174 | 1.6 | 1.6 | 0.00 | 0.00 | 0.00 | 31 | 1012.9 |
| 20260503130642 | 25 | 199 | 4.8 | 6.4 | 0.00 | 0.00 | 0.00 | 24 | 1014.8 |
| 20260503110526 | 23 | 244 | 6.4 | 6.4 | 0.00 | 0.00 | 0.00 | 27 | 1015.9 |
| 20260503090346 | 21 | 155 | 6.4 | 6.4 | 0.00 | 0.00 | 0.00 | 32 | 1017.1 |
| 20260503072230 | 19 | 121 | 4.8 | 6.4 | 0.00 | 0.00 | 0.00 | 42 | 1017.3 |
| 20260503071219 | 18 | 172 | 3.2 | 3.2 | 0.00 | 0.00 | 0.00 | 44 | 1017.2 |
| 20260503070218 | 17 | 211 | 6.4 | 6.4 | 0.00 | 0.00 | 0.00 | 46 | 1017.3 |